Ravenna, OH

11:17 PM EST on January 22, 2018 (GMT -0500)
Ravenna

Weather History for KPOV - November, 2012

Change the Weather History Date:

Saturday, November 24, 2012

  Actual Average (KCAK) Record (KCAK)
Temperature  
Mean Temperature 30 °F -  
Max Temperature 31 °F 45 °F 68 °F (1931)
Min Temperature 29 °F 29 °F 7 °F (1950)
Degree Days  
Heating Degree Days 35    
Moisture  
Dew Point 23 °F    
Average Humidity 75    
Maximum Humidity 84    
Minimum Humidity 64    
Precipitation  
Precipitation 0.00 in - - ()
Sea Level Pressure  
Sea Level Pressure 30.02 in    
Wind  
Wind Speed 13 mph (West)    
Max Wind Speed 21 mph    
Max Gust Speed 26 mph    
Visibility 8 miles    
Events      
Averages and records for this station are not official NWS values.
T = Trace of Precipitation, MM = Missing Value Source: NWS Daily Summary

Daily Weather History Graph

Daily Weather History Graph

Search for Another Location

Airport or City:

Trip Planner

Search our weather history database for the weather conditions in past years. The results will help you decide how hot, cold, wet, or windy it might be!

Date:

Astronomy

Nov. 24, 2012 Rise Set
Actual Time 7:24 AM EST 4:59 PM EST
Civil Twilight 6:53 AM EST 5:29 PM EST
Nautical Twilight 6:19 AM EST 6:03 PM EST
Astronomical Twilight 5:46 AM EST 6:36 PM EST
Moon 2:44 PM EST (11/24) 3:37 AM EST (11/24)
Length of Visible Light 10h 35m
Length of Day
9h 35m
Waxing Gibbous, 87% of the Moon is Illuminated
Nov 24
Waxing Gibbous
Nov 28
Full
Dec 6
Last Quarter
Dec 13
New
Dec 20
First Quarter

Hourly Weather History & Observations

Time (EST) Temp. Windchill Dew Point Humidity Pressure Visibility Wind Dir Wind Speed Gust Speed Precip Events Conditions
12:15 AM 30.9 °F 21.2 °F 23.0 °F 72% 29.96 in 10.0 mi West 12.7 mph 20.7 mph N/A   Overcast
12:34 AM 31.1 °F 20.9 °F 23.4 °F 73% 29.96 in 10.0 mi West 13.8 mph 21.9 mph N/A   Overcast
1:15 AM 31.1 °F 20.1 °F 23.2 °F 72% 29.95 in 10.0 mi West 16.1 mph 20.7 mph N/A   Overcast
1:34 AM 30.9 °F 20.7 °F 23.5 °F 74% 29.95 in 10.0 mi West 13.8 mph 17.3 mph N/A   Overcast
1:55 AM 30.9 °F 18.4 °F 23.7 °F 75% 29.95 in 10.0 mi West 20.7 mph 26.5 mph N/A   Overcast
2:15 AM 30.9 °F 22.2 °F 23.7 °F 75% 29.96 in 10.0 mi WSW 10.4 mph 21.9 mph N/A   Overcast
2:34 AM 30.9 °F 21.2 °F 23.7 °F 75% 29.96 in 10.0 mi West 12.7 mph - N/A   Overcast
3:15 AM 30.7 °F 20.4 °F 23.7 °F 75% 29.96 in 10.0 mi West 13.8 mph 21.9 mph N/A   Overcast
3:34 AM 30.7 °F 21.4 °F 23.9 °F 76% 29.96 in 10.0 mi West 11.5 mph 18.4 mph N/A   Overcast
3:55 AM 30.4 °F 21.0 °F 23.9 °F 77% 29.96 in 10.0 mi West 11.5 mph 18.4 mph N/A   Overcast
4:15 AM 30.2 °F 20.2 °F 23.9 °F 77% 29.96 in 10.0 mi West 12.7 mph - N/A   Overcast
4:34 AM 30.2 °F 20.2 °F 23.9 °F 77% 29.97 in 10.0 mi West 12.7 mph - N/A   Overcast
4:55 AM 30.6 °F 20.7 °F 23.9 °F 76% 29.97 in 10.0 mi WSW 12.7 mph 17.3 mph N/A   Overcast
5:14 AM 30.6 °F 20.7 °F 24.1 °F 77% 29.98 in 10.0 mi West 12.7 mph 19.6 mph N/A   Overcast
5:34 AM 30.4 °F 21.5 °F 24.3 °F 78% 29.98 in 10.0 mi West 10.4 mph - N/A   Overcast
5:55 AM 30.2 °F 21.3 °F 24.4 °F 79% 29.98 in 10.0 mi West 10.4 mph 18.4 mph N/A   Overcast
6:15 AM 30.2 °F 21.3 °F 24.6 °F 80% 29.98 in 10.0 mi West 10.4 mph 18.4 mph N/A   Overcast
6:34 AM 30.2 °F 20.8 °F 24.8 °F 80% 29.99 in 10.0 mi West 11.5 mph 16.1 mph N/A   Overcast
7:15 AM 30.2 °F 19.8 °F 24.3 °F 79% 30.00 in 10.0 mi WSW 13.8 mph 19.6 mph N/A   Overcast
7:35 AM 29.3 °F 19.1 °F 24.6 °F 83% 30.00 in 1.5 mi West 12.7 mph - N/A   Overcast
7:54 AM 29.7 °F 20.7 °F 24.6 °F 81% 30.01 in 4.0 mi West 10.4 mph 18.4 mph N/A   Overcast
8:14 AM 29.7 °F 19.6 °F 24.4 °F 81% 30.01 in 5.0 mi West 12.7 mph 17.3 mph N/A   Overcast
8:35 AM 29.3 °F 19.6 °F 24.8 °F 83% 30.01 in 3.0 mi West 11.5 mph - N/A   Overcast
8:55 AM 29.3 °F 20.8 °F 24.6 °F 83% 30.01 in 3.0 mi West 9.2 mph 18.4 mph N/A   Overcast
9:15 AM 29.5 °F 19.9 °F 24.6 °F 82% 30.02 in 4.0 mi West 11.5 mph 18.4 mph N/A   Overcast
9:34 AM 29.8 °F 19.8 °F 24.8 °F 81% 30.02 in 4.0 mi West 12.7 mph - N/A   Overcast
9:55 AM 29.8 °F 20.3 °F 24.8 °F 81% 30.03 in 4.0 mi West 11.5 mph - N/A   Overcast
10:15 AM 30.0 °F 20.0 °F 25.2 °F 82% 30.03 in 2.5 mi West 12.7 mph - N/A   Overcast
10:34 AM 29.8 °F 19.3 °F 25.3 °F 83% 30.04 in 4.0 mi West 13.8 mph - N/A   Overcast
10:55 AM 29.8 °F 20.9 °F 25.3 °F 83% 30.04 in 4.0 mi West 10.4 mph - N/A   Overcast
11:14 AM 30.0 °F 20.0 °F 25.2 °F 82% 30.04 in 2.5 mi West 12.7 mph 19.6 mph N/A   Overcast
11:35 AM 30.2 °F 20.2 °F 25.5 °F 83% 30.03 in 3.0 mi West 12.7 mph 18.4 mph N/A   Overcast
11:54 AM 30.2 °F 21.3 °F 25.7 °F 83% 30.03 in 2.5 mi West 10.4 mph 19.6 mph N/A   Overcast
12:15 PM 30.0 °F 19.5 °F 25.7 °F 84% 30.02 in 2.5 mi West 13.8 mph - N/A   Overcast
12:34 PM 30.2 °F 19.8 °F 25.5 °F 83% 30.02 in 5.0 mi West 13.8 mph 17.3 mph N/A   Overcast
12:55 PM 30.4 °F 19.5 °F 24.6 °F 79% 30.01 in 10.0 mi West 15.0 mph 18.4 mph N/A   Overcast
1:15 PM 29.8 °F 19.3 °F 24.8 °F 81% 30.02 in 5.0 mi West 13.8 mph 19.6 mph N/A   Overcast
1:34 PM 30.2 °F 18.5 °F 24.1 °F 78% 30.02 in 7.0 mi West 17.3 mph 23.0 mph N/A   Overcast
1:55 PM 30.2 °F 19.3 °F 24.4 °F 79% 30.02 in 4.0 mi West 15.0 mph 18.4 mph N/A   Overcast
2:15 PM 30.2 °F 19.8 °F 23.7 °F 77% 30.02 in 7.0 mi West 13.8 mph 17.3 mph N/A   Overcast
2:34 PM 29.8 °F 20.9 °F 23.9 °F 79% 30.02 in 5.0 mi WSW 10.4 mph 18.4 mph N/A   Overcast
2:55 PM 30.2 °F 19.3 °F 23.5 °F 76% 30.03 in 5.0 mi West 15.0 mph - N/A   Overcast
3:14 PM 29.8 °F 20.3 °F 23.5 °F 77% 30.03 in 5.0 mi West 11.5 mph - N/A   Overcast
3:35 PM 29.8 °F 19.8 °F 23.0 °F 76% 30.03 in 7.0 mi West 12.7 mph - N/A   Overcast
3:55 PM 29.8 °F 20.3 °F 22.5 °F 74% 30.04 in 7.0 mi West 11.5 mph - N/A   Overcast
4:15 PM 30.0 °F 20.5 °F 21.9 °F 72% 30.04 in 7.0 mi West 11.5 mph 17.3 mph N/A   Overcast
4:34 PM 30.0 °F 19.5 °F 21.6 °F 71% 30.05 in 7.0 mi West 13.8 mph 18.4 mph N/A   Overcast
4:55 PM 30.0 °F 20.0 °F 21.2 °F 70% 30.05 in 10.0 mi West 12.7 mph 18.4 mph N/A   Overcast
5:15 PM 29.8 °F 19.3 °F 21.4 °F 71% 30.05 in 10.0 mi West 13.8 mph 19.6 mph N/A   Overcast
5:34 PM 29.8 °F 18.9 °F 21.4 °F 71% 30.05 in 10.0 mi West 15.0 mph 20.7 mph N/A   Overcast
5:55 PM 30.0 °F 21.1 °F 20.7 °F 68% 30.05 in 10.0 mi West 10.4 mph 19.6 mph N/A   Overcast
6:14 PM 30.0 °F 19.1 °F 20.8 °F 69% 30.05 in 10.0 mi West 15.0 mph - N/A   Overcast
6:35 PM 30.2 °F 21.9 °F 20.3 °F 67% 30.05 in 10.0 mi West 9.2 mph 18.4 mph N/A   Overcast
6:55 PM 30.2 °F 19.3 °F 20.5 °F 67% 30.05 in 10.0 mi West 15.0 mph 18.4 mph N/A   Overcast
7:15 PM 30.2 °F 20.8 °F 20.3 °F 67% 30.05 in 10.0 mi West 11.5 mph 17.3 mph N/A   Overcast
7:34 PM 30.2 °F 20.8 °F 19.9 °F 66% 30.06 in 10.0 mi West 11.5 mph 18.4 mph N/A   Overcast
7:55 PM 30.0 °F 22.4 °F 19.9 °F 66% 30.06 in 10.0 mi West 8.1 mph 16.1 mph N/A   Overcast
8:15 PM 30.0 °F 21.7 °F 19.6 °F 65% 30.05 in 10.0 mi West 9.2 mph - N/A   Overcast
8:34 PM 30.2 °F 21.3 °F 19.4 °F 64% 30.06 in 10.0 mi West 10.4 mph - N/A   Overcast
8:55 PM 30.2 °F 20.8 °F 19.4 °F 64% 30.05 in 10.0 mi West 11.5 mph 17.3 mph N/A   Overcast
9:15 PM 30.2 °F 20.8 °F 19.4 °F 64% 30.05 in 10.0 mi West 11.5 mph 17.3 mph N/A   Overcast
9:34 PM 30.2 °F 20.8 °F 19.2 °F 64% 30.04 in 10.0 mi West 11.5 mph 17.3 mph N/A   Overcast
9:55 PM 30.2 °F 21.9 °F 19.4 °F 64% 30.04 in 10.0 mi West 9.2 mph 18.4 mph N/A   Overcast
10:15 PM 30.2 °F 20.2 °F 19.2 °F 64% 30.03 in 10.0 mi WSW 12.7 mph 19.6 mph N/A   Overcast
10:34 PM 30.0 °F 21.7 °F 19.4 °F 65% 30.03 in 10.0 mi West 9.2 mph - N/A   Overcast
10:55 PM 30.0 °F 21.7 °F 19.6 °F 65% 30.03 in 10.0 mi WSW 9.2 mph - N/A   Overcast
11:15 PM 29.8 °F 20.9 °F 19.4 °F 65% 30.03 in 10.0 mi West 10.4 mph - N/A   Overcast
11:34 PM 29.7 °F 22.0 °F 19.2 °F 65% 30.02 in 10.0 mi West 8.1 mph - N/A   Overcast
11:55 PM 29.7 °F 23.7 °F 20.1 °F 68% 30.02 in 10.0 mi WSW 5.8 mph - N/A   Overcast